Tracking 23099 objects as of 14-May-2021
HD Live streaming from Space Station
objects crossing your sky now

AQT-D

Track AQT-D now!
10-day predictions
AQT-D is classified as:


NORAD ID: 44791
Int'l Code: 1998-067QU
Perigee: 393.0 km
Apogee: 401.2 km
Inclination: 51.6 °
Period: 92.4 minutes
Semi major axis: 6768 km
RCS: Unknown
Launch date: November 20, 1998
Source: Japan (JPN)
Launch site: TYURATAM MISSILE AND SPACE COMPLEX (TTMTR)

Uplink (MHz):
Downlink (MHz):
Beacon (MHz):
Mode:
Call sign:
Status: Unknown

aabbcc
Your satellite tracking list
Your tracking list is empty




NASA's NSSDC Master Catalog

Two Line Element Set (TLE):
1 44791U 98067QW  21133.43963602  .00013210  00000-0  17123-3 0  9992
2 44791  51.6374 135.9169 0006083 122.1388 238.0196 15.59204096 83987
Source of the keplerian elements: AFSPC